Location: Newark
(51.3318°N, 0.0053°E)
Time: 09:10:02
(UTC+00:00)

CAS-6 - Pass Details

Date: 09 July 2022
Orbit: 613 x 634 km, 97.9° (Epoch: 09 August)

Event Time Altitude Azimuth Distance (km) Brightness Sun altitude
Exits shadow 22:31:04 17° 188° (S) 1,571 ? -13.5°
Maximum altitude 22:34:12 51° 260° (W) 782 ? -13.7°
Drops below altitude 10° 22:38:26 10° 337° (NNW) 1,993 ? -14.0°
Sets 22:40:41 0° 343° (NNW) 2,901 ? -14.1°
